Home   Weather   Brampton   Past weeks

Flag for Canada Past Weather in Brampton, Ontario, Canada — Yesterday and Last 2 Weeks

Now
45 °F

Partly sunny.


Feels Like: 35 °F
Forecast: 28 / 45 °F
Wind: 26 mph from West

Location: Toronto Pearson International Airport

Current Time: Feb 25, 2017 at 3:32:03 pm

Latest Report: Feb 25, 2017 at 2:00 pm


Visibility: 15 mi

Pressure: 29.49 "Hg

Humidity: 57%

Dew Point: 30 °F

Location of BramptonLocation

Past Weather in Brampton — Graph

°F

Brampton Temperature Yesterday

Maximum temperature yesterday: 41 °F (at 12:00 am)
Minimum temperature yesterday: 37 °F (at 10:00 pm)
Average temperature yesterday: 40 °F

High & Low Weather Summary for the Past Weeks

 TemperatureHumidityPressure
High63 °F (Feb 23, 12:00 pm)100% (Feb 12, 6:00 pm)30.40 "Hg (Feb 12, 6:00 pm)
Low14 °F (Feb 16, 7:00 am)48% (Feb 20, 12:00 pm)29.43 "Hg (Feb 25, 7:22 am)
Average35 °F79%29.83 "Hg
* Reported Feb 10 2:00 pm — Feb 25 2:00 pm, Brampton, Weather by CustomWeather, © 2017

Note: Actual official high and low records may vary slightly from our data, if they occured in-between our weather recording intervals... More about our weather records

Advertising

Brampton Weather History for the Previous 24 Hours

Scroll right to see more
 ConditionsComfort  
Time TempWeatherWind HumidityBarometerVisibility
2:00 pm
Sat, Feb 25
45 °FPartly sunny.26 mph57%29.49 "Hg15 mi
1:00 pm45 °FMostly cloudy.23 mph61%29.46 "Hg15 mi
12:00 pm45 °FOvercast.15 mph66%29.49 "Hg15 mi
11:00 am45 °FPartly sunny.18 mph71%29.47 "Hg15 mi
10:00 am43 °FMostly cloudy.12 mph93%29.47 "Hg15 mi
9:23 am43 °FOvercast.17 mph93%29.46 "Hg7 mi
9:00 am43 °FFog.12 mph100%29.45 "Hg6 mi
8:45 am43 °FFog.13 mph100%29.44 "Hg4 mi
8:39 am43 °FQuite cool.9 mph100%29.44 "Hg3 mi
8:21 am45 °FQuite cool.6 mph93%29.44 "Hg1 mi
7:54 am43 °FFog.5 mph93%29.43 "Hg0 mi
7:22 am39 °FFog.2 mph100%29.43 "Hg0 mi
7:00 am41 °FFog.No wind93%29.43 "Hg0 mi
6:00 am39 °FFog.5 mph100%29.44 "Hg0 mi
5:25 am41 °FQuite cool.9 mph93%29.46 "Hg1 mi
5:13 am41 °FFog.9 mph93%29.45 "Hg1 mi
5:00 am39 °FLight rain. Fog.6 mph100%29.46 "Hg2 mi
4:00 am39 °FLight rain. Fog.8 mph100%29.48 "Hg3 mi
3:00 am37 °FRain. Fog.6 mph100%29.52 "Hg3 mi
2:27 am37 °FHeavy rain. Fog.7 mph93%29.53 "Hg2 mi
2:18 am37 °FRain. Fog.10 mph93%29.54 "Hg2 mi
2:00 am37 °FLight rain. Fog.10 mph100%29.55 "Hg3 mi
1:00 am37 °FLight rain. Fog.2 mph100%29.52 "Hg3 mi
12:42 am37 °FLight rain. Fog.12 mph100%29.51 "Hg2 mi
12:15 am37 °FChilly.8 mph100%29.58 "Hg1 mi
12:00 am37 °FThunderstorms. Fog.2 mph100%29.58 "Hg1 mi
11:29 pm
Fri, Feb 24
37 °FFog.3 mph100%29.58 "Hg1 mi
11:00 pm37 °FChilly.7 mph100%29.58 "Hg1 mi
10:13 pm37 °FChilly.8 mph100%29.58 "Hg0 mi
10:00 pm37 °FChilly.8 mph100%29.59 "Hg1 mi
9:32 pm39 °FFog.8 mph93%29.59 "Hg1 mi
9:00 pm39 °FFog.7 mph93%29.61 "Hg2 mi
8:39 pm39 °FFog.7 mph93%29.63 "Hg2 mi
8:00 pm39 °FFog.8 mph100%29.61 "Hg2 mi
7:00 pm41 °FThunderstorms. Fog.5 mph93%29.70 "Hg3 mi
6:08 pm41 °FFog.9 mph93%29.69 "Hg4 mi
6:00 pm41 °FFog.10 mph93%29.67 "Hg4 mi
5:36 pm41 °FDrizzle. Fog.2 mph93%29.69 "Hg4 mi
5:00 pm41 °FFog.7 mph93%29.65 "Hg4 mi
4:00 pm41 °FFog.8 mph93%29.69 "Hg6 mi
3:00 pm41 °FFog.5 mph93%29.70 "Hg6 mi
Weather by CustomWeather, © 2017

See weather overviewHow to use our weather pages